Weather in Shedok

Russia / Krasnodar Krai     44°12′57″N   40°50′44″E
temp.,
°C
wind,
m/s
gust,
m/s
humid.,
%
clouds,
%
prec.,
mm/h
press.,
hPa
HPBL,
m
11 may, tue
tue1100:00+1ssw2283100 0.0 102039
03:00+2ssw3480100 0.1 101887
06:00+4s2278100 0.1 101682
09:00+5se0179100 0.6 1016291
12:00+9ene2364100 0.3 1015909
15:00+10ene3273100 0.5 1015861
18:00+7ene1392100 1.6 1016102
21:00+6w0197100 1.7 101714
12 may, wed
wed1200:00+4s119483 0.0 101617
03:00+1ssw22876 0.0 101718
06:00+2ssw22825 0.0 101833
09:00+11ene12485 0.0 1016439
12:00+16ne33441 0.0 10141127
15:00+18ene445370 0.0 10131300
18:00+16ene477111 0.0 1013527
21:00+9s12920 0.0 101313
13 may, thu
thu1300:00+8ssw32770 0.0 101330
03:00+8s32590 0.0 101325
06:00+9s22630 0.0 101331
09:00+20e12420 0.0 1012306
12:00+23ne34415 0.0 1011939
15:00+24ne34476 0.0 1011961
18:00+20ene257592 0.0 1012147
21:00+15s2291100 0.0 101228
14 may, fri
fri1400:00+14s33695 0.0 101233
03:00+13s33474 0.0 101234
06:00+13s33557 0.0 101237
09:00+25sse11382 0.0 1011250
12:00+28ne33325 0.0 10101374
15:00+28ne34405 0.0 10101025
18:00+24ene247360 0.0 1010115
21:00+17s32810 0.0 101126
15 may, sat
sat1500:00+16ssw33635 0.0 101136
03:00+15ssw22570 0.0 101224
06:00+14s11702 0.0 101411
09:00+21ene11610 0.0 1014453
12:00+23n43614 0.0 10141017
15:00+22nne436898 0.1 1014935
18:00+19n238699 0.5 1015151
21:00+16se11949 1.1 101511